ハウエル彗星

88P/Howell (2009)

English version
Home page
Updated on March 13, 2011

---------------------------------------------------------------------

・ プロフィール

・ 写真集

・ 軌道要素

The following orbital elements are taken from MPC 66205:

Epoch 2009 Oct. 16.0 TT = JDT 2455120.5
T 2009 Oct. 12.4693 TT                                  MPC
q   1.363486             (2000.0)            P               Q
n   0.1794476      Peri.  235.9623      +0.3841862      +0.9210419
a   3.112989       Node    56.7567      -0.8198930      +0.3721759
e   0.562001       Incl.    4.3817      -0.4244720      +0.1147476
P   5.49
From 1058 observations 1993-2009. +0.00 +0.0000.

・ 星図

・ 光度変化

        m1 =  3.5 + 5 logΔ + 30   log r(t - 15)  [   ,220]  (              〜2010年 5月20日)
        m1 = 11.0 + 5 logΔ + 10.0 log r          [220,   ]  (2010年 5月20日〜              )

---------------------------------------------------------------------

軌道要素はMPCのEphemerides and Orbital Elementsに掲載されたものです。
星図は StellaNavigator Ver.2.0 for Windows (アストロアーツ 編著 / アスキー出版局刊) で作成したものです。
光度グラフはComet for Windowsで作成したものです。

---------------------------------------------------------------------

Copyright(C) Seiichi Yoshida (comet@aerith.net). All rights reserved.